Location: ????????
(54.8751°N, 38.5756°E)
Time: 02:23:50
(UTC+00:00)

Cosmos 1726 - Visible Passes

Search period start: 19 July 2024 00:00
Search period end: 29 July 2024 00:00
Orbit: 372 x 377 km, 82.5° (Epoch: 18 July)

Date Brightness Start Highest point End Pass type
(mag) Time Alt. Az. Time Alt. Az. Time Alt. Az.
19 Jul 4.6 22:51:47 10° E 22:52:21 10° E 22:52:54 10° ENE visible
20 Jul 1.7 00:21:42 10° SSW 00:24:41 61° WNW 00:27:40 10° N visible
20 Jul 3.2 23:23:05 10° SSE 23:25:44 29° E 23:28:24 10° NNE visible
21 Jul 1.5 23:56:27 12° SSW 23:59:12 81° W 00:02:14 10° N visible
22 Jul 3.6 22:57:46 11° SE 23:00:04 23° E 23:02:30 10° NE visible
23 Jul 3.0 00:30:13 10° SW 00:32:46 25° WNW 00:35:21 10° N visible
23 Jul 1.6 23:31:00 17° S 23:33:11 75° E 23:36:12 10° NNE visible
24 Jul 3.9 22:32:00 11° SE 22:33:49 18° E 22:35:57 10° NE visible
25 Jul 2.6 00:04:04 13° SW 00:06:23 32° WNW 00:09:09 10° N visible
25 Jul 2.0 23:04:55 22° SSE 23:06:36 54° E 23:09:34 10° NNE visible
26 Jul 4.1 22:05:38 11° ESE 22:07:03 14° E 22:08:42 10° NE visible
26 Jul 2.2 23:37:41 19° SW 23:39:28 42° WNW 23:42:22 10° N visible
27 Jul 2.5 22:38:14 25° SSE 22:39:29 39° E 22:42:19 10° NNE visible
28 Jul 3.7 00:10:27 10° WSW 00:12:24 16° WNW 00:14:22 10° NNW visible
28 Jul 4.3 21:39:02 10° E 21:39:43 11° E 21:40:25 10° ENE visible
28 Jul 1.7 23:10:40 29° SW 23:11:59 59° WNW 23:14:58 10° N visible
